Location: *
(51.0333°S, 178.4667°E)
Time: 11:01:20
(UTC+00:00)

JB-3 - Pass Details

Date: 15 November 2019
Orbit: 526 x 591 km, 97.4° (Epoch: 15 December)

Event Time Altitude Azimuth Distance (km) Brightness Sun altitude
Exits shadow 10:01:56 32° 3° (N) 931 5.0 -16.5°
Maximum altitude 10:03:37 76° 283° (WNW) 561 4.3 -16.6°
Drops below altitude 10° 10:07:33 10° 196° (SSW) 1,819 8.2 -16.9°
Sets 10:09:42 0° 194° (SSW) 2,724 9.5 -17.1°
